EW5449 Weather Reports


Display with metric or nautical units.
time (UTC)temp
F
wind
direction
speed
MPH
gust
MPH
rain 1hr
in
rain 24hr
in
rain mn
in
humidity
%
barometer
mb
20210624151644 73 181 3.0 9.0 0.00 0.00 0.00 47 1027.7
20210624150119 73 142 2.0 8.0 0.00 0.00 0.00 48 1027.4
20210624144626 72 190 3.0 8.0 0.00 0.00 0.00 51 1027.4
20210624143245 71 182 3.0 6.0 0.00 0.00 0.00 55 1027.2
20210624141643 70 182 2.0 5.0 0.00 0.00 0.00 60 1027.1
20210624140143 68 214 1.0 4.0 0.00 0.00 0.00 65 1027.0
20210624134603 66 269 2.0 4.0 0.00 0.00 0.00 67 1026.9
20210624133048 65 286 0.0 2.0 0.00 0.00 0.00 74 1027.1
20210624131548 63 270 1.0 4.0 0.00 0.00 0.00 75 1027.0
20210624130034 62 212 1.0 3.0 0.00 0.00 0.00 78 1027.2
20210624124522 60 259 0.0 2.0 0.00 0.00 0.00 82 1027.1
20210624123035 59 259 0.0 2.0 0.00 0.00 0.00 84 1027.1
20210624121539 58 285 1.0 3.0 0.00 0.00 0.00 85 1027.1
20210624120031 57 286 1.0 3.0 0.00 0.00 0.00 88 1027.2
20210624114511 55 254 0.0 3.0 0.00 0.00 0.00 90 1027.2
20210624113036 55 273 0.0 2.0 0.00 0.00 0.00 92 1027.0
20210624111511 54 298 0.0 3.0 0.00 0.00 0.00 93 1026.7
20210624110011 53 298 0.0 1.0 0.00 0.00 0.00 94 1026.7
20210624104505 53 298 0.0 0.0 0.00 0.00 0.00 94 1026.5
20210624103249 53 298 0.0 0.0 0.00 0.00 0.00 93 1026.3
20210624101706 53 298 0.0 0.0 0.00 0.00 0.00 93 1026.2
20210624100235 53 298 0.0 2.0 0.00 0.00 0.00 94 1026.1
20210624094816 53 298 0.0 3.0 0.00 0.00 0.00 94 1026.0
20210624093115 53 280 0.0 1.0 0.00 0.00 0.00 94 1025.8
20210624091639 53 280 0.0 0.0 0.00 0.00 0.00 93 1025.7
20210624090136 53 280 0.0 0.0 0.00 0.00 0.00 92 1025.6
20210624084619 53 280 0.0 1.0 0.00 0.00 0.00 92 1025.5
20210624083119 53 280 0.0 1.0 0.00 0.00 0.00 91 1025.6
20210624081602 54 280 0.0 0.0 0.00 0.00 0.00 90 1025.6
20210624080148 55 280 0.0 0.0 0.00 0.00 0.00 91 1025.5
20210624074622 55 280 0.0 2.0 0.00 0.00 0.00 91 1025.3
20210624073106 55 280 0.0 2.0 0.00 0.00 0.00 90 1025.4
20210624071630 55 280 0.0 3.0 0.00 0.00 0.00 91 1025.4
20210624070107 55 280 0.0 2.0 0.00 0.00 0.00 91 1025.5
20210624064622 54 161 0.0 2.0 0.00 0.00 0.00 92 1025.5
20210624063041 54 161 0.0 0.0 0.00 0.00 0.00 90 1025.5
20210624061601 54 161 0.0 2.0 0.00 0.00 0.00 89 1025.5
20210624060052 55 161 0.0 0.0 0.00 0.00 0.00 88 1025.3
20210624054544 56 161 0.0 0.0 0.00 0.00 0.00 90 1025.2
20210624053043 57 161 0.0 0.0 0.00 0.00 0.00 92 1025.1
20210624051547 56 161 0.0 0.0 0.00 0.00 0.00 90 1025.0
20210624050030 57 161 0.0 0.0 0.00 0.00 0.00 90 1025.0
20210624044618 57 161 0.0 0.0 0.00 0.00 0.00 88 1025.0
20210624043026 57 161 0.0 0.0 0.00 0.00 0.00 86 1025.1
20210624041526 58 161 0.0 0.0 0.00 0.00 0.00 85 1025.1
20210624040020 58 161 0.0 0.0 0.00 0.00 0.00 85 1025.2
20210624034534 58 161 0.0 0.0 0.00 0.00 0.00 82 1025.1
20210624033025 59 161 0.0 0.0 0.00 0.00 0.00 81 1024.9
20210624031523 60 161 0.0 0.0 0.00 0.00 0.00 82 1024.9
20210624030035 60 161 0.0 0.0 0.00 0.00 0.00 79 1024.9
20210624024528 61 161 0.0 0.0 0.00 0.00 0.00 77 1024.8
20210624023013 61 161 0.0 0.0 0.00 0.00 0.00 75 1024.8
20210624021513 62 161 0.0 0.0 0.00 0.00 0.00 72 1024.8
20210624020119 63 161 0.0 0.0 0.00 0.00 0.00 69 1024.7
20210624014509 64 161 0.0 0.0 0.00 0.00 0.00 68 1024.5
20210624013008 65 161 0.0 0.0 0.00 0.00 0.00 68 1024.2
20210624011534 66 161 0.0 0.0 0.00 0.00 0.00 64 1024.1
20210624010007 67 161 0.0 0.0 0.00 0.00 0.00 62 1023.9
20210624004510 68 161 0.0 0.0 0.00 0.00 0.00 58 1023.8
20210624003002 69 161 0.0 0.0 0.00 0.00 0.00 55 1023.6
20210624001635 70 161 0.0 0.0 0.00 0.00 0.00 52 1023.5
20210624000234 70 161 1.0 2.0 0.00 0.00 0.00 50 1023.4
20210623234700 71 161 0.0 2.0 0.00 0.00 0.00 47 1023.4
20210623233413 72 161 1.0 5.0 0.00 0.00 0.00 45 1023.2
20210623231643 73 172 0.0 4.0 0.00 0.00 0.00 43 1023.1
20210623230258 74 248 1.0 5.0 0.00 0.00 0.00 43 1023.1
20210623224637 75 159 1.0 5.0 0.00 0.00 0.00 41 1023.0
20210623223136 75 224 2.0 6.0 0.00 0.00 0.00 40 1022.9